Location: Fort Worth, Tx
(32.7431°N, 97.3695°W)
Time: 01:30:17
(UTC-05:00)

Tiangong - Visible Passes

Search period start: 06 December 2022 00:00
Search period end: 16 December 2022 00:00
Orbit: 386 x 393 km, 41.5° (Epoch: 05 December)

Date Brightness Start Highest point End Pass type
(mag) Time Alt. Az. Time Alt. Az. Time Alt. Az.
06 Dec -0.1 18:49:34 10° NW 18:51:42 16° N 18:53:51 10° NE visible
06 Dec 0.9 20:26:30 10° NW 20:26:42 11° NW 20:26:42 11° NW visible
07 Dec -0.5 19:28:10 10° NW 19:30:39 20° NNE 19:31:10 20° NNE visible
08 Dec -0.4 20:06:11 10° NW 20:07:53 26° NNW 20:07:53 26° NNW visible
09 Dec -1.0 19:07:33 10° NW 19:10:21 28° NNE 19:12:18 16° ENE visible
09 Dec 1.2 20:44:16 10° WNW 20:44:35 12° WNW 20:44:35 12° WNW visible
10 Dec -2.3 19:45:17 10° WNW 19:48:27 81° NNE 19:49:02 55° ESE visible
11 Dec 0.1 20:23:27 10° W 20:25:53 23° SW 20:25:53 23° SW visible
12 Dec -1.1 19:23:52 10° WNW 19:26:56 47° SSW 19:29:59 10° SE visible
13 Dec 1.1 20:02:55 10° WSW 20:04:03 11° SW 20:05:11 10° SSW visible
14 Dec 0.5 19:02:06 10° W 19:04:40 23° SW 19:07:13 10° SSE visible
